,,Stat6,,Stat2,,Stat8,,Stat9,,Stat10,,Wind1,,Wind1,
time,status,PA1M_AVG,status,PR1M_SUM,status,RH1M_AVG,status,SR1M_AVG,status,TA1M_AVG,status,W1dAve1m,status,W1sAve1m,
2005-11-17, 00:00:00,VALID,917.724,VALID,0,VALID,100,VALID,-0.0509425,VALID,19.3848,VALID,137,VALID,0.912427,
2005-11-17, 00:01:00,VALID,917.723,VALID,0,VALID,100,VALID,-0.0339617,VALID,19.3783,VALID,135,VALID,0.804497,
2005-11-17, 00:02:00,VALID,917.723,VALID,0,VALID,100,VALID,-0.0169808,VALID,19.3813,VALID,134,VALID,1.02969,
2005-11-17, 00:03:00,VALID,917.716,VALID,0,VALID,100,VALID,-0.0509425,VALID,19.3781,VALID,142,VALID,1.02229,
2005-11-17, 00:04:00,VALID,917.712,VALID,0,VALID,100,VALID,-0.0169808,VALID,19.3885,VALID,137,VALID,1.2054,
2005-11-17, 00:05:00,VALID,917.718,VALID,0,VALID,100,VALID,-0.0169808,VALID,19.3882,VALID,141,VALID,1.10614,
2005-11-17, 00:06:00,VALID,917.702,VALID,0,VALID,100,VALID,0,VALID,19.3748,VALID,121,VALID,0.920387,
2005-11-17, 00:07:00,VALID,917.702,VALID,0,VALID,100,VALID,-0.0339617,VALID,19.3818,VALID,129,VALID,0.744531,
2005-11-17, 00:08:00,VALID,917.687,VALID,0,VALID,100,VALID,-0.0169808,VALID,19.389,VALID,129,VALID,0.829687,
2005-11-17, 00:09:00,VALID,917.672,VALID,0,VALID,100,VALID,-0.0679233,VALID,19.3753,VALID,135,VALID,1.42188,
2005-11-17, 00:10:00,VALID,917.667,VALID,0,VALID,100,VALID,-0.0509425,VALID,19.3688,VALID,132,VALID,0.864583,
2005-11-17, 00:11:00,VALID,917.658,VALID,0,VALID,100,VALID,-0.0169808,VALID,19.3753,VALID,138,VALID,1.25291,
2005-11-17, 00:12:00,VALID,917.653,VALID,0,VALID,100,VALID,-0.0339617,VALID,19.3756,VALID,138,VALID,1.07527,
2005-11-17, 00:13:00,VALID,917.638,VALID,0,VALID,100,VALID,-0.0679233,VALID,19.3753,VALID,139,VALID,1.02489,
2005-11-17, 00:14:00,VALID,917.637,VALID,0,VALID,100,VALID,-0.0679233,VALID,19.3751,VALID,138,VALID,1.14727,
2005-11-17, 00:15:00,VALID,917.632,VALID,0,VALID,100,VALID,-0.0679233,VALID,19.3823,VALID,136,VALID,1.21875,
2005-11-17, 00:16:00,VALID,917.63,VALID,0,VALID,100,VALID,-0.0509425,VALID,19.3885,VALID,147,VALID,1.26406,
2005-11-17, 00:17:00,VALID,917.631,VALID,0,VALID,100,VALID,-0.0509425,VALID,19.3783,VALID,148,VALID,1.10399,
2005-11-17, 00:18:00,VALID,917.626,VALID,0,VALID,100,VALID,-0.0679233,VALID,19.3917,VALID,146,VALID,0.892721,
2005-11-17, 00:19:00,VALID,917.622,VALID,0,VALID,100,VALID,-0.0679233,VALID,19.3753,VALID,146,VALID,1.20898,
2005-11-17, 00:20:00,VALID,917.613,VALID,0,VALID,100,VALID,-0.0339617,VALID,19.3753,VALID,153,VALID,0.782138,
2005-11-17, 00:21:00,VALID,917.597,VALID,0,VALID,100,VALID,-0.0679233,VALID,19.3659,VALID,143,VALID,0.798874,
2005-11-17, 00:22:00,VALID,917.585,VALID,0,VALID,100,VALID,-0.0679233,VALID,19.3495,VALID,142,VALID,0.738281,
2005-11-17, 00:23:00,VALID,917.573,VALID,0,VALID,100,VALID,-0.0849042,VALID,19.3502,VALID,134,VALID,0.757622,
2005-11-17, 00:24:00,VALID,917.562,VALID,0,VALID,100,VALID,-0.0679233,VALID,19.3333,VALID,117,VALID,0.78561,
2005-11-17, 00:25:00,VALID,917.558,VALID,0,VALID,100,VALID,-0.0339617,VALID,19.3465,VALID,135,VALID,0.498728,
2005-11-17, 00:26:00,VALID,917.542,VALID,0,VALID,100,VALID,0,VALID,19.3298,VALID,109,VALID,0.815696,
2005-11-17, 00:27:00,VALID,917.525,VALID,0,VALID,100,VALID,-0.0339617,VALID,19.3239,VALID,113,VALID,1.12195,
2005-11-17, 00:28:00,VALID,917.521,VALID,0,VALID,100,VALID,-0.0339617,VALID,19.3398,VALID,116,VALID,0.772321,
2005-11-17, 00:29:00,VALID,917.507,VALID,0,VALID,100,VALID,-0.0169808,VALID,19.3462,VALID,113,VALID,0.933203,
2005-11-17, 00:30:00,VALID,917.496,VALID,0,VALID,100,VALID,-0.0679233,VALID,19.3562,VALID,105,VALID,0.787246,
2005-11-17, 00:31:00,VALID,917.504,VALID,0,VALID,100,VALID,-0.0509425,VALID,19.3726,VALID,119,VALID,0.44786,
2005-11-17, 00:32:00,VALID,917.475,VALID,0,VALID,100,VALID,0,VALID,19.3785,VALID,112,VALID,0.532072,
2005-11-17, 00:33:00,VALID,917.467,VALID,0,VALID,100,VALID,-0.0339617,VALID,19.382,VALID,106,VALID,0.535429,
2005-11-17, 00:34:00,VALID,917.467,VALID,0,VALID,100,VALID,-0.0339617,VALID,19.3924,VALID,92,VALID,0.892756,
2005-11-17, 00:35:00,VALID,917.452,VALID,0,VALID,100,VALID,0,VALID,19.3947,VALID,99,VALID,0.62872,
2005-11-17, 00:36:00,VALID,917.457,VALID,0,VALID,100,VALID,-0.0339617,VALID,19.3882,VALID,93,VALID,0.848958,
2005-11-17, 00:37:00,VALID,917.463,VALID,0,VALID,100,VALID,-0.0169808,VALID,19.3982,VALID,104,VALID,0.750558,
2005-11-17, 00:38:00,VALID,917.458,VALID,0,VALID,100,VALID,-0.0169808,VALID,19.4046,VALID,115,VALID,0.77907,
2005-11-17, 00:39:00,VALID,917.461,VALID,0,VALID,100,VALID,-0.0509425,VALID,19.4012,VALID,95,VALID,0.754179,
2005-11-17, 00:40:00,VALID,917.458,VALID,0,VALID,100,VALID,-0.0509425,VALID,19.3954,VALID,102,VALID,0.432049,
2005-11-17, 00:41:00,VALID,917.452,VALID,0,VALID,100,VALID,-0.0679233,VALID,19.392,VALID,104,VALID,0.654552,
2005-11-17, 00:42:00,VALID,917.443,VALID,0,VALID,100,VALID,-0.0509425,VALID,19.3852,VALID,82,VALID,0.884115,
2005-11-17, 00:43:00,VALID,917.453,VALID,0,VALID,100,VALID,-0.0339617,VALID,19.3751,VALID,70,VALID,0.882631,
2005-11-17, 00:44:00,VALID,917.441,VALID,0,VALID,100,VALID,-0.0169808,VALID,19.3823,VALID,74,VALID,0.880664,
2005-11-17, 00:45:00,VALID,917.425,VALID,0,VALID,100,VALID,-0.0339617,VALID,19.3721,VALID,77,VALID,0.670759,
2005-11-17, 00:46:00,VALID,917.409,VALID,0,VALID,100,VALID,-0.0169808,VALID,19.392,VALID,70,VALID,0.785342,
2005-11-17, 00:47:00,VALID,917.399,VALID,0,VALID,100,VALID,-0.0509425,VALID,19.3785,VALID,68,VALID,0.470486,
2005-11-17, 00:48:00,VALID,917.376,VALID,0,VALID,100,VALID,-0.101885,VALID,19.3823,VALID,75,VALID,0.351017,
2005-11-17, 00:49:00,VALID,917.364,VALID,0,VALID,100,VALID,-0.0679233,VALID,19.3823,VALID,95,VALID,0.505526,
2005-11-17, 00:50:00,VALID,917.354,VALID,0,VALID,100,VALID,-0.0339617,VALID,19.3793,VALID,89,VALID,0.412064,
2005-11-17, 00:51:00,VALID,917.336,VALID,0,VALID,100,VALID,-0.0509425,VALID,19.3723,VALID,97,VALID,0.513808,
2005-11-17, 00:52:00,VALID,917.321,VALID,0,VALID,100,VALID,-0.0509425,VALID,19.3626,VALID,100,VALID,0.514063,
2005-11-17, 00:53:00,VALID,917.302,VALID,0,VALID,100,VALID,-0.101885,VALID,19.3728,VALID,93,VALID,0.632267,
2005-11-17, 00:54:00,VALID,917.284,VALID,0,VALID,100,VALID,-0.0509425,VALID,19.3788,VALID,96,VALID,0.499256,
2005-11-17, 00:55:00,VALID,917.255,VALID,0,VALID,100,VALID,-0.0509425,VALID,19.3785,VALID,92,VALID,0.543255,
2005-11-17, 00:56:00,VALID,917.232,VALID,0,VALID,100,VALID,-0.0509425,VALID,19.4021,VALID,92,VALID,0.349432,
2005-11-17, 00:57:00,VALID,917.207,VALID,0,VALID,100,VALID,-0.0169808,VALID,19.385,VALID,92,VALID,0.403201,
2005-11-17, 00:58:00,VALID,917.186,VALID,0,VALID,100,VALID,-0.0339617,VALID,19.3984,VALID,92,VALID,0.169457,
2005-11-17, 00:59:00,VALID,917.17,VALID,0,VALID,100,VALID,-0.0509425,VALID,19.3882,VALID,82,VALID,0.290968,
2005-11-17, 01:00:00,VALID,917.146,VALID,0,VALID,100,VALID,-0.0509425,VALID,19.3952,VALID,73,VALID,0.0491071,
2005-11-17, 01:01:00,VALID,917.138,VALID,0,VALID,100,VALID,-0.0509425,VALID,19.3924,VALID,73,VALID,0,
2005-11-17, 01:02:00,VALID,917.098,VALID,0,VALID,100,VALID,-0.0849042,VALID,19.3696,VALID,73,VALID,0,
2005-11-17, 01:03:00,VALID,917.092,VALID,0,VALID,100,VALID,-0.0339617,VALID,19.3562,VALID,73,VALID,0.0128205,
2005-11-17, 01:04:00,VALID,917.078,VALID,0,VALID,100,VALID,-0.0509425,VALID,19.3562,VALID,73,VALID,0.111555,
2005-11-17, 01:05:00,VALID,917.06,VALID,0,VALID,100,VALID,-0.0339617,VALID,19.34,VALID,73,VALID,0.168826,
2005-11-17, 01:06:00,VALID,917.038,VALID,0,VALID,100,VALID,-0.0169808,VALID,19.34,VALID,73,VALID,0.129836,
2005-11-17, 01:07:00,VALID,917.031,VALID,0,VALID,100,VALID,-0.0339617,VALID,19.3303,VALID,77,VALID,0.248365,
2005-11-17, 01:08:00,VALID,917.008,VALID,0,VALID,100,VALID,-0.0509425,VALID,19.3206,VALID,99,VALID,0.470982,
2005-11-17, 01:09:00,VALID,916.992,VALID,0,VALID,100,VALID,-0.0679233,VALID,19.2943,VALID,99,VALID,0.318576,
2005-11-17, 01:10:00,VALID,916.98,VALID,0,VALID,100,VALID,-0.0509425,VALID,19.3015,VALID,104,VALID,0.507254,
2005-11-17, 01:11:00,VALID,916.956,VALID,0,VALID,100,VALID,-0.0849042,VALID,19.292,VALID,108,VALID,0.427379,
2005-11-17, 01:12:00,VALID,916.932,VALID,0,VALID,100,VALID,-0.0849042,VALID,19.2918,VALID,108,VALID,0.376758,
2005-11-17, 01:13:00,VALID,916.915,VALID,0,VALID,100,VALID,-0.0169808,VALID,19.2821,VALID,109,VALID,0.396569,
2005-11-17, 01:14:00,VALID,916.904,VALID,0,VALID,100,VALID,-0.0509425,VALID,19.2789,VALID,137,VALID,0.545201,
2005-11-17, 01:15:00,VALID,916.878,VALID,0,VALID,100,VALID,-0.0679233,VALID,19.2789,VALID,133,VALID,0.649601,
2005-11-17, 01:16:00,VALID,916.869,VALID,0,VALID,100,VALID,-0.0679233,VALID,19.2789,VALID,112,VALID,0.65532,
2005-11-17, 01:17:00,VALID,916.846,VALID,0,VALID,100,VALID,-0.0679233,VALID,19.2729,VALID,109,VALID,0.654726,
2005-11-17, 01:18:00,VALID,916.829,VALID,0,VALID,100,VALID,-0.0339617,VALID,19.2692,VALID,108,VALID,0.700457,
2005-11-17, 01:19:00,VALID,916.813,VALID,0,VALID,100,VALID,-0.0339617,VALID,19.2756,VALID,105,VALID,0.728849,
2005-11-17, 01:20:00,VALID,916.802,VALID,0,VALID,100,VALID,-0.0679233,VALID,19.2754,VALID,106,VALID,0.56936,
2005-11-17, 01:21:00,VALID,916.785,VALID,0,VALID,100,VALID,-0.0509425,VALID,19.2888,VALID,113,VALID,0.472565,
2005-11-17, 01:22:00,VALID,916.77,VALID,0,VALID,100,VALID,-0.0339617,VALID,19.2985,VALID,113,VALID,0.426054,
2005-11-17, 01:23:00,VALID,916.766,VALID,0,VALID,100,VALID,-0.0679233,VALID,19.2945,VALID,113,VALID,0.369234,
2005-11-17, 01:24:00,VALID,916.749,VALID,0,VALID,100,VALID,-0.0679233,VALID,19.2953,VALID,114,VALID,0.390104,
2005-11-17, 01:25:00,VALID,916.725,VALID,0,VALID,100,VALID,-0.0169808,VALID,19.2883,VALID,115,VALID,0.165737,
2005-11-17, 01:26:00,VALID,916.703,VALID,0,VALID,100,VALID,-0.0509425,VALID,19.295,VALID,115,VALID,0.517578,
2005-11-17, 01:27:00,VALID,916.685,VALID,0,VALID,100,VALID,-0.0169808,VALID,19.2751,VALID,134,VALID,0.736979,
2005-11-17, 01:28:00,VALID,916.667,VALID,0,VALID,100,VALID,-0.0509425,VALID,19.2726,VALID,136,VALID,0.464935,
2005-11-17, 01:29:00,VALID,916.642,VALID,0,VALID,100,VALID,-0.101885,VALID,19.26,VALID,139,VALID,0.595022,
2005-11-17, 01:30:00,VALID,916.62,VALID,0,VALID,100,VALID,-0.0169808,VALID,19.2565,VALID,136,VALID,0.683093,
2005-11-17, 01:31:00,VALID,916.603,VALID,0,VALID,100,VALID,-0.0509425,VALID,19.2431,VALID,152,VALID,0.988364,
2005-11-17, 01:32:00,VALID,916.586,VALID,0,VALID,100,VALID,-0.0169808,VALID,19.2465,VALID,130,VALID,0.959162,
2005-11-17, 01:33:00,VALID,916.565,VALID,0,VALID,100,VALID,-0.0679233,VALID,19.2366,VALID,127,VALID,0.900343,
2005-11-17, 01:34:00,VALID,916.545,VALID,0,VALID,100,VALID,-0.0339617,VALID,19.2304,VALID,129,VALID,0.836301,
2005-11-17, 01:35:00,VALID,916.533,VALID,0,VALID,100,VALID,-0.0339617,VALID,19.2204,VALID,122,VALID,0.895952,
2005-11-17, 01:36:00,VALID,916.523,VALID,0,VALID,100,VALID,-0.0679233,VALID,19.2234,VALID,134,VALID,0.913517,
2005-11-17, 01:37:00,VALID,916.495,VALID,0,VALID,100,VALID,-0.0509425,VALID,19.2433,VALID,131,VALID,0.643714,
2005-11-17, 01:38:00,VALID,916.483,VALID,0,VALID,100,VALID,-0.0339617,VALID,19.2433,VALID,132,VALID,0.926962,
2005-11-17, 01:39:00,VALID,916.471,VALID,0,VALID,100,VALID,-0.0509425,VALID,19.247,VALID,133,VALID,0.704314,
2005-11-17, 01:40:00,VALID,916.451,VALID,0,VALID,100,VALID,-0.0509425,VALID,19.2396,VALID,135,VALID,0.402344,
2005-11-17, 01:41:00,VALID,916.44,VALID,0,VALID,100,VALID,-0.0169808,VALID,19.2433,VALID,134,VALID,0.533612,
2005-11-17, 01:42:00,VALID,916.412,VALID,0,VALID,100,VALID,-0.0169808,VALID,19.2331,VALID,131,VALID,0.787305,
2005-11-17, 01:43:00,VALID,916.397,VALID,0,VALID,100,VALID,-0.0169808,VALID,19.2366,VALID,132,VALID,0.85992,
2005-11-17, 01:44:00,VALID,916.373,VALID,0,VALID,100,VALID,-0.0849042,VALID,19.2465,VALID,136,VALID,0.700838,
2005-11-17, 01:45:00,VALID,916.355,VALID,0,VALID,100,VALID,-0.0509425,VALID,19.2498,VALID,128,VALID,0.463481,
2005-11-17, 01:46:00,VALID,916.341,VALID,0,VALID,100,VALID,-0.0339617,VALID,19.2468,VALID,130,VALID,0.692294,
2005-11-17, 01:47:00,VALID,916.312,VALID,0,VALID,100,VALID,-0.0509425,VALID,19.2468,VALID,120,VALID,0.455433,
2005-11-17, 01:48:00,VALID,916.31,VALID,0,VALID,100,VALID,-0.0679233,VALID,19.2403,VALID,117,VALID,0.277248,
2005-11-17, 01:49:00,VALID,916.286,VALID,0,VALID,100,VALID,0.0169808,VALID,19.2493,VALID,117,VALID,0.384487,
2005-11-17, 01:50:00,VALID,916.275,VALID,0,VALID,100,VALID,0.0679233,VALID,19.2324,VALID,117,VALID,0.160528,
2005-11-17, 01:51:00,VALID,916.269,VALID,0,VALID,100,VALID,0.0509425,VALID,19.2227,VALID,117,VALID,0.144444,
2005-11-17, 01:52:00,VALID,916.249,VALID,0,VALID,100,VALID,0.0849042,VALID,19.2292,VALID,117,VALID,0.072218,
2005-11-17, 01:53:00,VALID,916.229,VALID,0,VALID,100,VALID,0.0849042,VALID,19.2123,VALID,117,VALID,0,
2005-11-17, 01:54:00,VALID,916.212,VALID,0,VALID,100,VALID,0.0339617,VALID,19.2232,VALID,117,VALID,0,
2005-11-17, 01:55:00,VALID,916.204,VALID,0,VALID,100,VALID,0.0339617,VALID,19.1872,VALID,117,VALID,0.00726744,
2005-11-17, 01:56:00,VALID,916.18,VALID,0,VALID,100,VALID,0.0509425,VALID,19.1742,VALID,117,VALID,0,
2005-11-17, 01:57:00,VALID,916.162,VALID,0,VALID,100,VALID,0.0339617,VALID,19.1549,VALID,117,VALID,0,
2005-11-17, 01:58:00,VALID,916.16,VALID,0,VALID,100,VALID,0.0339617,VALID,19.1549,VALID,117,VALID,0,
2005-11-17, 01:59:00,VALID,916.131,VALID,0,VALID,100,VALID,0.0679233,VALID,19.1486,VALID,117,VALID,0,
2005-11-17, 02:00:00,VALID,916.136,VALID,0,VALID,100,VALID,0.0849042,VALID,19.136,VALID,117,VALID,0,
2005-11-17, 02:01:00,VALID,916.126,VALID,0,VALID,100,VALID,0.0509425,VALID,19.1225,VALID,117,VALID,0,
2005-11-17, 02:02:00,VALID,916.118,VALID,0,VALID,100,VALID,0.0679233,VALID,19.1096,VALID,117,VALID,0,
2005-11-17, 02:03:00,VALID,916.097,VALID,0,VALID,100,VALID,0.0679233,VALID,19.0805,VALID,117,VALID,0,
2005-11-17, 02:04:00,VALID,916.093,VALID,0,VALID,100,VALID,0,VALID,19.0805,VALID,117,VALID,0,
2005-11-17, 02:05:00,VALID,916.094,VALID,0,VALID,100,VALID,0.0339617,VALID,19.0676,VALID,117,VALID,0,
2005-11-17, 02:06:00,VALID,916.069,VALID,0,VALID,100,VALID,0.0679233,VALID,19.0545,VALID,117,VALID,0,
2005-11-17, 02:07:00,VALID,916.066,VALID,0,VALID,100,VALID,0.0339617,VALID,19.0547,VALID,117,VALID,0.0174419,
2005-11-17, 02:08:00,VALID,916.056,VALID,0,VALID,100,VALID,0.0339617,VALID,19.0415,VALID,117,VALID,0.000190549,
2005-11-17, 02:09:00,VALID,916.031,VALID,0,VALID,100,VALID,0.0339617,VALID,19.042,VALID,117,VALID,0.283249,
2005-11-17, 02:10:00,VALID,916.015,VALID,0,VALID,100,VALID,0.0169808,VALID,19.0087,VALID,117,VALID,0.231771,
2005-11-17, 02:11:00,VALID,915.994,VALID,0,VALID,100,VALID,0.0679233,VALID,19.0154,VALID,117,VALID,0.523777,
2005-11-17, 02:12:00,VALID,915.973,VALID,0,VALID,100,VALID,0.0509425,VALID,18.9993,VALID,117,VALID,0.118118,
2005-11-17, 02:13:00,VALID,915.951,VALID,0,VALID,100,VALID,0.0509425,VALID,18.9896,VALID,121,VALID,0.56936,
2005-11-17, 02:14:00,VALID,915.928,VALID,0,VALID,100,VALID,0,VALID,19.0025,VALID,130,VALID,0.438227,
2005-11-17, 02:15:00,VALID,915.915,VALID,0,VALID,100,VALID,0.0339617,VALID,18.9965,VALID,132,VALID,0.455171,
2005-11-17, 02:16:00,VALID,915.901,VALID,0,VALID,100,VALID,0.0169808,VALID,18.9903,VALID,133,VALID,0.589258,
2005-11-17, 02:17:00,VALID,915.893,VALID,0,VALID,100,VALID,0.0169808,VALID,18.9965,VALID,141,VALID,0.576029,
2005-11-17, 02:18:00,VALID,915.884,VALID,0,VALID,100,VALID,0.0509425,VALID,18.9968,VALID,132,VALID,0.554497,
2005-11-17, 02:19:00,VALID,915.871,VALID,0,VALID,100,VALID,-0.0339617,VALID,19.0107,VALID,126,VALID,0.362165,
2005-11-17, 02:20:00,VALID,915.864,VALID,0,VALID,100,VALID,-0.0849042,VALID,18.9982,VALID,126,VALID,0.246626,
2005-11-17, 02:21:00,VALID,915.866,VALID,0,VALID,100,VALID,-0.0849042,VALID,18.9915,VALID,125,VALID,0.374645,
2005-11-17, 02:22:00,VALID,915.859,VALID,0,VALID,100,VALID,-0.0849042,VALID,18.9848,VALID,100,VALID,0.347565,
2005-11-17, 02:23:00,VALID,915.848,VALID,0,VALID,100,VALID,-0.0339617,VALID,18.9756,VALID,50,VALID,0.775,
2005-11-17, 02:24:00,VALID,915.847,VALID,0,VALID,100,VALID,-0.0339617,VALID,18.9361,VALID,42,VALID,0.85032,
2005-11-17, 02:25:00,VALID,915.845,VALID,0,VALID,100,VALID,-0.0169808,VALID,18.9174,VALID,42,VALID,0.71513,
2005-11-17, 02:26:00,VALID,915.831,VALID,0,VALID,100,VALID,-0.0679233,VALID,18.9013,VALID,42,VALID,0.574855,
2005-11-17, 02:27:00,VALID,915.813,VALID,0,VALID,100,VALID,-0.0339617,VALID,18.9043,VALID,42,VALID,0.530887,
2005-11-17, 02:28:00,VALID,915.804,VALID,0,VALID,100,VALID,-0.0509425,VALID,18.8976,VALID,42,VALID,0.466206,
2005-11-17, 02:29:00,VALID,915.799,VALID,0,VALID,100,VALID,-0.0849042,VALID,18.8948,VALID,42,VALID,0.617914,
2005-11-17, 02:30:00,VALID,915.799,VALID,0,VALID,100,VALID,-0.0679233,VALID,18.8842,VALID,42,VALID,0.406076,
2005-11-17, 02:31:00,VALID,915.783,VALID,0,VALID,100,VALID,-0.0679233,VALID,18.8812,VALID,43,VALID,0.458659,
2005-11-17, 02:32:00,VALID,915.781,VALID,0,VALID,100,VALID,-0.0679233,VALID,18.8814,VALID,43,VALID,0.446987,
2005-11-17, 02:33:00,VALID,915.755,VALID,0,VALID,100,VALID,-0.0679233,VALID,18.8752,VALID,44,VALID,0.483259,
2005-11-17, 02:34:00,VALID,915.762,VALID,0,VALID,100,VALID,-0.0509425,VALID,18.8717,VALID,44,VALID,0.449219,
2005-11-17, 02:35:00,VALID,915.751,VALID,0,VALID,100,VALID,-0.0679233,VALID,18.869,VALID,44,VALID,0.375586,
2005-11-17, 02:36:00,VALID,915.743,VALID,0,VALID,100,VALID,-0.0849042,VALID,18.8625,VALID,44,VALID,0.368403,
2005-11-17, 02:37:00,VALID,915.739,VALID,0,VALID,100,VALID,-0.0679233,VALID,18.8623,VALID,45,VALID,0.293164,
2005-11-17, 02:38:00,VALID,915.744,VALID,0,VALID,100,VALID,-0.0509425,VALID,18.8754,VALID,45,VALID,0.0916667,
2005-11-17, 02:39:00,VALID,915.732,VALID,0,VALID,100,VALID,-0.0679233,VALID,18.8851,VALID,46,VALID,0.349085,
2005-11-17, 02:40:00,VALID,915.74,VALID,0,VALID,100,VALID,-0.101885,VALID,18.8851,VALID,49,VALID,0.311773,
2005-11-17, 02:41:00,VALID,915.722,VALID,0,VALID,100,VALID,-0.0509425,VALID,18.8745,VALID,63,VALID,0.431402,
2005-11-17, 02:42:00,VALID,915.718,VALID,0,VALID,100,VALID,-0.0509425,VALID,18.8916,VALID,72,VALID,0.331101,
2005-11-17, 02:43:00,VALID,915.711,VALID,0,VALID,100,VALID,-0.0679233,VALID,18.872,VALID,72,VALID,0.533249,
2005-11-17, 02:44:00,VALID,915.699,VALID,0,VALID,100,VALID,-0.0679233,VALID,18.8754,VALID,74,VALID,0.662157,
2005-11-17, 02:45:00,VALID,915.694,VALID,0,VALID,100,VALID,-0.0339617,VALID,18.8623,VALID,76,VALID,0.667878,
2005-11-17, 02:46:00,VALID,915.684,VALID,0,VALID,100,VALID,-0.0679233,VALID,18.8526,VALID,75,VALID,0.709413,
2005-11-17, 02:47:00,VALID,915.681,VALID,0,VALID,100,VALID,-0.0509425,VALID,18.8297,VALID,74,VALID,0.783794,
2005-11-17, 02:48:00,VALID,915.68,VALID,0,VALID,100,VALID,-0.0679233,VALID,18.8136,VALID,72,VALID,0.814276,
2005-11-17, 02:49:00,VALID,915.687,VALID,0,VALID,100,VALID,0,VALID,18.8064,VALID,71,VALID,0.776344,
2005-11-17, 02:50:00,VALID,915.688,VALID,0,VALID,100,VALID,0.0679233,VALID,18.8154,VALID,71,VALID,0.796512,
2005-11-17, 02:51:00,VALID,915.689,VALID,0,VALID,100,VALID,0.0169808,VALID,18.8223,VALID,71,VALID,0.640067,
2005-11-17, 02:52:00,VALID,915.694,VALID,0,VALID,100,VALID,0.0169808,VALID,18.8156,VALID,71,VALID,0.548473,
2005-11-17, 02:53:00,VALID,915.692,VALID,0,VALID,100,VALID,0.0509425,VALID,18.8062,VALID,71,VALID,0.51398,
2005-11-17, 02:54:00,VALID,915.688,VALID,0,VALID,100,VALID,0.0339617,VALID,18.7999,VALID,71,VALID,0.433308,
2005-11-17, 02:55:00,VALID,915.67,VALID,0,VALID,100,VALID,0.0169808,VALID,18.7835,VALID,71,VALID,0.366629,
2005-11-17, 02:56:00,VALID,915.669,VALID,0,VALID,100,VALID,0,VALID,18.7902,VALID,71,VALID,0.414258,
2005-11-17, 02:57:00,VALID,915.657,VALID,0,VALID,100,VALID,0.0509425,VALID,18.7932,VALID,71,VALID,0.479102,
2005-11-17, 02:58:00,VALID,915.653,VALID,0,VALID,100,VALID,0,VALID,18.7932,VALID,71,VALID,0.317336,
2005-11-17, 02:59:00,VALID,915.655,VALID,0,VALID,100,VALID,0.0339617,VALID,18.7833,VALID,71,VALID,0.0941134,
2005-11-17, 03:00:00,VALID,915.637,VALID,0,VALID,100,VALID,0.0169808,VALID,18.7898,VALID,71,VALID,0.185547,
2005-11-17, 03:01:00,VALID,915.637,VALID,0,VALID,100,VALID,0.0339617,VALID,18.7801,VALID,71,VALID,0.234896,
2005-11-17, 03:02:00,VALID,915.626,VALID,0,VALID,100,VALID,0.0509425,VALID,18.7865,VALID,71,VALID,0.303597,
2005-11-17, 03:03:00,VALID,915.631,VALID,0,VALID,100,VALID,0.0509425,VALID,18.8027,VALID,71,VALID,0.45957,
2005-11-17, 03:04:00,VALID,915.639,VALID,0,VALID,100,VALID,0.0679233,VALID,18.8285,VALID,71,VALID,0.53561,
2005-11-17, 03:05:00,VALID,915.638,VALID,0,VALID,100,VALID,0.0679233,VALID,18.8579,VALID,73,VALID,0.648256,
2005-11-17, 03:06:00,VALID,915.635,VALID,0,VALID,100,VALID,0.0169808,VALID,18.8842,VALID,83,VALID,0.602628,
2005-11-17, 03:07:00,VALID,915.635,VALID,0,VALID,100,VALID,0.0509425,VALID,18.8936,VALID,83,VALID,0.607143,
2005-11-17, 03:08:00,VALID,915.62,VALID,0,VALID,100,VALID,0.0339617,VALID,18.9026,VALID,83,VALID,0.598505,
2005-11-17, 03:09:00,VALID,915.636,VALID,0,VALID,100,VALID,0.0509425,VALID,18.9091,VALID,83,VALID,0.61472,
2005-11-17, 03:10:00,VALID,915.628,VALID,0,VALID,100,VALID,0.0679233,VALID,18.9225,VALID,83,VALID,0.650521,
2005-11-17, 03:11:00,VALID,915.62,VALID,0,VALID,100,VALID,0.0509425,VALID,18.9063,VALID,82,VALID,0.728516,
2005-11-17, 03:12:00,VALID,915.603,VALID,0,VALID,100,VALID,0.0339617,VALID,18.9091,VALID,82,VALID,0.807049,
2005-11-17, 03:13:00,VALID,915.596,VALID,0,VALID,100,VALID,0.0679233,VALID,18.9091,VALID,82,VALID,0.830669,
2005-11-17, 03:14:00,VALID,915.596,VALID,0,VALID,100,VALID,0.0679233,VALID,18.9095,VALID,79,VALID,1.01017,
2005-11-17, 03:15:00,VALID,915.586,VALID,0,VALID,100,VALID,0.101885,VALID,18.9091,VALID,77,VALID,0.93532,
2005-11-17, 03:16:00,VALID,915.572,VALID,0,VALID,100,VALID,0.0849042,VALID,18.9093,VALID,72,VALID,0.911701,
2005-11-17, 03:17:00,VALID,915.548,VALID,0,VALID,100,VALID,0.0169808,VALID,18.8994,VALID,72,VALID,0.659091,
2005-11-17, 03:18:00,VALID,915.529,VALID,0,VALID,100,VALID,0.0679233,VALID,18.8832,VALID,73,VALID,0.841518,
2005-11-17, 03:19:00,VALID,915.513,VALID,0,VALID,100,VALID,0,VALID,18.8648,VALID,70,VALID,0.86849,
2005-11-17, 03:20:00,VALID,915.508,VALID,0,VALID,100,VALID,-0.0169808,VALID,18.8655,VALID,64,VALID,1.0686,
2005-11-17, 03:21:00,VALID,915.497,VALID,0,VALID,100,VALID,-0.0339617,VALID,18.8752,VALID,60,VALID,0.935213,
2005-11-17, 03:22:00,VALID,915.501,VALID,0,VALID,100,VALID,-0.0339617,VALID,18.8625,VALID,50,VALID,1.06212,
2005-11-17, 03:23:00,VALID,915.483,VALID,0,VALID,100,VALID,-0.0169808,VALID,18.8692,VALID,52,VALID,1.16334,
2005-11-17, 03:24:00,VALID,915.468,VALID,0,VALID,100,VALID,-0.0679233,VALID,18.8657,VALID,56,VALID,1.07972,
2005-11-17, 03:25:00,VALID,915.454,VALID,0,VALID,100,VALID,-0.0849042,VALID,18.8657,VALID,67,VALID,1.13529,
2005-11-17, 03:26:00,VALID,915.452,VALID,0,VALID,100,VALID,-0.0509425,VALID,18.869,VALID,72,VALID,0.859933,
2005-11-17, 03:27:00,VALID,915.439,VALID,0,VALID,100,VALID,-0.0339617,VALID,18.8657,VALID,76,VALID,0.886102,
2005-11-17, 03:28:00,VALID,915.417,VALID,0,VALID,100,VALID,-0.0509425,VALID,18.866,VALID,65,VALID,0.701042,
2005-11-17, 03:29:00,VALID,915.4,VALID,0,VALID,100,VALID,-0.0339617,VALID,18.8528,VALID,67,VALID,0.711682,
2005-11-17, 03:30:00,VALID,915.379,VALID,0,VALID,100,VALID,-0.0339617,VALID,18.8265,VALID,77,VALID,0.825267,
2005-11-17, 03:31:00,VALID,915.365,VALID,0,VALID,100,VALID,-0.0169808,VALID,18.8136,VALID,84,VALID,0.851381,
2005-11-17, 03:32:00,VALID,915.34,VALID,0,VALID,100,VALID,-0.0509425,VALID,18.8071,VALID,81,VALID,0.725561,
2005-11-17, 03:33:00,VALID,915.333,VALID,0,VALID,100,VALID,-0.0169808,VALID,18.8011,VALID,73,VALID,0.525694,
2005-11-17, 03:34:00,VALID,915.319,VALID,0,VALID,100,VALID,-0.0169808,VALID,18.7882,VALID,81,VALID,0.616279,
2005-11-17, 03:35:00,VALID,915.319,VALID,0,VALID,100,VALID,0,VALID,18.7783,VALID,98,VALID,0.392299,
2005-11-17, 03:36:00,VALID,915.31,VALID,0,VALID,100,VALID,-0.0169808,VALID,18.7591,VALID,102,VALID,0.471946,
2005-11-17, 03:37:00,VALID,915.303,VALID,0,VALID,100,VALID,-0.0169808,VALID,18.7589,VALID,106,VALID,0.218564,
2005-11-17, 03:38:00,VALID,915.303,VALID,0,VALID,100,VALID,-0.0339617,VALID,18.7462,VALID,106,VALID,0.356027,
2005-11-17, 03:39:00,VALID,915.309,VALID,0,VALID,100,VALID,0,VALID,18.739,VALID,112,VALID,0.453488,